User: anonymous   Login
Location: Boiro
(42.6475°N, 8.8834°W)
Time: 05:14:06
(UTC+01:00)
Language:

UNISAT 6 - Orbit

View from above orbital plane
View from above orbital plane
View from above satellite
View from above satellite

Ground track
Ground track

The orbit data is extracted from the following two-line orbital elements,

1 40012U 14033C   22024.53821788  .00000588  00000-0  93576-4 0  9995
2 40012  97.6617 220.2000 0056504 264.9615  94.5143 14.74519433408777
Epoch (UTC): 24 January 2022 12:55:02
Eccentricity: 0.0056504
inclination: 97.6617°
perigee height: 607 km
apogee height: 686 km
right ascension of ascending node: 220.2000°
argument of perigee: 264.9615°
revolutions per day: 14.74519433
mean anomaly at epoch: 94.5143°
orbit number at epoch: 40877

The dashed part of the orbit path shows where the satellite is in the earth's shadow,  

DLR